Flag for Portugal Weather past 2 weeks in Coimbra, Portugal

Now
70 °F

Sunny.


Feels Like: 70 °F
Forecast: 51 / 78 °F
Wind: 10 mph from Southeast

Location: Porto / Pedras Rubras

Current Time: Oct 25, 2014 at 9:48:17 AM

Latest Report: Oct 25, 2014 at 9:00 AM


Visibility: 10 mi

Pressure: 30.04 "Hg

Humidity: 60%

Dew point: 55 °F

Location of CoimbraLocation

Historic Weather in Coimbra — Graph

°F

Coimbra temperature yesterday

Maximum temperature yesterday: 82 °F (at 2:00 PM)
Minimum temperature yesterday: 63 °F (at 1:00 AM)
Average temperature yesterday: 69 °F

Past Weeks' High & Low Weather Summary

 TemperatureHumidityPressure
High84 °F (Oct 19, 4:30 PM)100% (Oct 10, 8:00 AM)30.33 "Hg (Oct 10, 8:00 AM)
Low52 °F (Oct 14, 2:00 AM)39% (Oct 23, 12:30 PM)29.56 "Hg (Oct 12, 4:00 AM)
Average66 °F84%29.96 "Hg
* Reported Oct 10 8:00 AM — Oct 25 8:30 AM, Coimbra, Weather by CustomWeather, © 2014

Note: Actual official high and low records may vary slightly from our data, if they occured in-between our weather recording intervals... More about our weather records

Advertising

Coimbra weather history for previous 24 hours

 ConditionsComfort  
Time TempWeatherWind HumidityBarometerVisibility
8:30 AM
Oct 25
70 °FPassing clouds.12 mph60%30.01 "HgN/A
8:00 AM66 °FPassing clouds.10 mph68%30.01 "HgN/A
7:30 AM59 °FPassing clouds.6 mph94%30.01 "HgN/A
7:00 AM57 °FClear.3 mph100%30.01 "Hg10 mi
6:30 AM57 °FPassing clouds.3 mph100%30.01 "HgN/A
6:00 AM61 °FClear.1 mph94%30.01 "Hg10 mi
5:30 AM61 °FClear.3 mph88%30.01 "Hg10 mi
5:00 AM61 °FClear.3 mph88%30.01 "Hg10 mi
4:30 AM64 °FClear.3 mph78%30.01 "Hg10 mi
4:00 AM66 °FClear.6 mph73%30.01 "Hg10 mi
3:30 AM66 °FClear.6 mph78%30.01 "Hg10 mi
3:00 AM66 °FClear.6 mph83%30.01 "Hg10 mi
2:48 AM66 °FClear.6 mph83%30.01 "Hg10 mi
2:30 AM63 °FPassing clouds.5 mph88%30.04 "HgN/A
2:00 AM68 °FClear.8 mph78%30.04 "Hg10 mi
1:30 AM66 °FClear.8 mph83%30.04 "Hg10 mi
1:00 AM63 °FClear.5 mph88%30.04 "Hg6 mi
12:30 AM64 °FClear.6 mph94%30.04 "Hg6 mi
12:00 AM64 °FClear.1 mph94%30.04 "Hg6 mi
11:30 PM
Oct 24
64 °FClear.5 mph94%30.04 "Hg4 mi
11:00 PM64 °FFog.2 mph94%30.04 "Hg4 mi
10:30 PM64 °FFog.3 mph100%30.04 "Hg3 mi
10:00 PM66 °FClear.3 mph94%30.04 "Hg5 mi
9:30 PM64 °FClear.3 mph94%30.04 "Hg4 mi
9:00 PM66 °FClear.1 mph88%30.04 "Hg4 mi
8:30 PM66 °FClear.2 mph94%30.04 "Hg4 mi
8:00 PM68 °FClear.2 mph88%30.04 "Hg4 mi
7:30 PM68 °FSunny.3 mph83%30.04 "Hg10 mi
7:00 PM72 °FClear.5 mph78%30.04 "Hg6 mi
6:30 PM75 °FClear.6 mph69%30.04 "Hg5 mi
6:00 PM77 °FSunny.3 mph69%30.01 "Hg10 mi
5:30 PM79 °FSunny.5 mph65%30.04 "Hg10 mi
5:00 PM79 °FPassing clouds.7 mph65%30.04 "HgN/A
4:30 PM79 °FSunny.7 mph65%30.04 "Hg10 mi
4:00 PM77 °FSunny.8 mph65%30.04 "Hg10 mi
3:30 PM79 °FPassing clouds.6 mph61%30.04 "HgN/A
3:00 PM77 °FPassing clouds.7 mph61%30.04 "HgN/A
2:30 PM81 °FPassing clouds.6 mph51%30.04 "HgN/A
2:00 PM82 °FSunny.7 mph45%30.07 "Hg10 mi
1:30 PM81 °FPassing clouds.6 mph45%30.07 "HgN/A
1:00 PM79 °FPassing clouds.5 mph54%30.09 "HgN/A
12:30 PM79 °FSunny.7 mph48%30.09 "Hg10 mi
12:00 PM75 °FPassing clouds.5 mph61%30.09 "HgN/A
11:30 AM72 °FPassing clouds.5 mph69%30.09 "HgN/A
11:00 AM72 °FPassing clouds.5 mph65%30.09 "HgN/A
10:30 AM68 °FSunny.2 mph73%30.09 "Hg10 mi
10:00 AM68 °FSunny.5 mph73%30.09 "Hg10 mi
9:30 AM68 °FSunny.12 mph69%30.07 "Hg10 mi
9:00 AM66 °FSunny.8 mph73%30.07 "Hg10 mi
Weather by CustomWeather, © 2014

See weather overviewHow to use our weather pages